Time,TemperatureF,DewpointF,PressureIn,WindDirection,WindDirectionDegrees,WindSpeedMPH,WindSpeedGustMPH,Humidity,HourlyPrecipIn,Conditions,Clouds,dailyrainin,SoftwareType,DateUTC
2013-04-03 00:00:00,32.0,12.0,30.03,WNW,286,7.0,18.0,42,-99.99,,,-99.99,,2013-04-03 04:00:00,
2013-04-03 00:23:00,32.0,12.0,30.03,WNW,286,7.0,18.0,42,-99.99,,,-99.99,,2013-04-03 04:23:00,
2013-04-03 00:33:00,32.0,12.0,30.03,WNW,286,7.0,18.0,42,-99.99,,,-99.99,,2013-04-03 04:33:00,
2013-04-03 00:43:00,32.0,12.0,30.03,WNW,286,7.0,18.0,42,-99.99,,,-99.99,,2013-04-03 04:43:00,
2013-04-03 00:53:00,32.0,12.0,30.03,WNW,286,7.0,18.0,42,-99.99,,,-99.99,,2013-04-03 04:53:00,
2013-04-03 01:00:00,32.0,8.0,30.03,NW,309,12.0,17.0,36,-99.99,,,-99.99,,2013-04-03 05:00:00,
2013-04-03 01:23:00,32.0,8.0,30.03,NW,309,12.0,17.0,36,-99.99,,,-99.99,,2013-04-03 05:23:00,
2013-04-03 01:33:00,32.0,8.0,30.03,NW,309,12.0,17.0,36,-99.99,,,-99.99,,2013-04-03 05:33:00,
2013-04-03 01:42:00,32.0,8.0,30.03,NW,309,12.0,17.0,36,-99.99,,,-99.99,,2013-04-03 05:42:00,
2013-04-03 01:53:00,32.0,8.0,30.03,NW,309,12.0,17.0,36,-99.99,,,-99.99,,2013-04-03 05:53:00,
2013-04-03 02:00:00,30.0,8.0,30.03,WNW,294,4.0,17.0,40,-99.99,,,-99.99,,2013-04-03 06:00:00,
2013-04-03 02:22:00,30.0,8.0,30.03,WNW,294,4.0,17.0,40,-99.99,,,-99.99,,2013-04-03 06:22:00,
2013-04-03 02:32:00,30.0,8.0,30.03,WNW,294,4.0,17.0,40,-99.99,,,-99.99,,2013-04-03 06:32:00,
2013-04-03 02:42:00,30.0,8.0,30.03,WNW,294,4.0,17.0,40,-99.99,,,-99.99,,2013-04-03 06:42:00,
2013-04-03 02:52:00,30.0,8.0,30.03,WNW,294,4.0,17.0,40,-99.99,,,-99.99,,2013-04-03 06:52:00,
2013-04-03 03:00:00,29.0,8.0,30.03,West,279,5.0,10.0,42,-99.99,,,-99.99,,2013-04-03 07:00:00,
2013-04-03 03:23:00,29.0,8.0,30.03,West,279,5.0,10.0,42,-99.99,,,-99.99,,2013-04-03 07:23:00,
2013-04-03 03:33:00,29.0,8.0,30.03,West,279,5.0,10.0,42,-99.99,,,-99.99,,2013-04-03 07:33:00,
2013-04-03 03:43:00,29.0,8.0,30.03,West,279,5.0,10.0,42,-99.99,,,-99.99,,2013-04-03 07:43:00,
2013-04-03 03:53:00,29.0,8.0,30.03,West,279,5.0,10.0,42,-99.99,,,-99.99,,2013-04-03 07:53:00,
2013-04-03 04:00:00,28.0,9.0,30.03,West,268,7.0,9.0,46,-99.99,,,-99.99,,2013-04-03 08:00:00,
2013-04-03 04:22:00,28.0,9.0,30.03,West,268,7.0,9.0,46,-99.99,,,-99.99,,2013-04-03 08:22:00,
2013-04-03 04:33:00,28.0,9.0,30.03,West,268,7.0,9.0,46,-99.99,,,-99.99,,2013-04-03 08:33:00,
2013-04-03 04:43:00,28.0,9.0,30.03,West,268,7.0,9.0,46,-99.99,,,-99.99,,2013-04-03 08:43:00,
2013-04-03 04:52:00,28.0,9.0,30.03,West,268,7.0,9.0,46,-99.99,,,-99.99,,2013-04-03 08:52:00,
2013-04-03 05:00:00,27.0,9.0,30.03,WSW,250,4.0,7.0,48,-99.99,,,-99.99,,2013-04-03 09:00:00,
2013-04-03 05:22:00,27.0,9.0,30.03,WSW,250,4.0,7.0,48,-99.99,,,-99.99,,2013-04-03 09:22:00,
2013-04-03 05:33:00,27.0,9.0,30.03,WSW,250,4.0,7.0,48,-99.99,,,-99.99,,2013-04-03 09:33:00,
2013-04-03 05:43:00,27.0,9.0,30.03,WSW,250,4.0,7.0,48,-99.99,,,-99.99,,2013-04-03 09:43:00,
2013-04-03 05:53:00,27.0,9.0,30.03,WSW,250,4.0,7.0,48,-99.99,,,-99.99,,2013-04-03 09:53:00,
2013-04-03 06:00:00,26.0,10.0,30.06,West,266,4.0,6.0,53,-99.99,,,-99.99,,2013-04-03 10:00:00,
2013-04-03 06:33:00,26.0,10.0,30.06,West,266,4.0,6.0,53,-99.99,,,-99.99,,2013-04-03 10:33:00,
2013-04-03 06:43:00,26.0,10.0,30.06,West,266,4.0,6.0,53,-99.99,,,-99.99,,2013-04-03 10:43:00,
2013-04-03 06:53:00,26.0,10.0,30.06,West,266,4.0,6.0,53,-99.99,,,-99.99,,2013-04-03 10:53:00,
2013-04-03 07:00:00,27.0,11.0,30.09,WNW,289,7.0,8.0,51,-99.99,,,-99.99,,2013-04-03 11:00:00,
2013-04-03 07:33:00,27.0,11.0,30.09,WNW,289,7.0,8.0,51,-99.99,,,-99.99,,2013-04-03 11:33:00,
2013-04-03 07:42:00,27.0,11.0,30.09,WNW,289,7.0,8.0,51,-99.99,,,-99.99,,2013-04-03 11:42:00,
2013-04-03 07:53:00,27.0,11.0,30.09,WNW,289,7.0,8.0,51,-99.99,,,-99.99,,2013-04-03 11:53:00,
2013-04-03 08:00:00,30.0,12.0,30.09,WNW,295,10.0,17.0,46,-99.99,,,-99.99,,2013-04-03 12:00:00,
2013-04-03 08:33:00,30.0,12.0,30.09,WNW,295,10.0,17.0,46,-99.99,,,-99.99,,2013-04-03 12:33:00,
2013-04-03 08:42:00,30.0,12.0,30.09,WNW,295,10.0,17.0,46,-99.99,,,-99.99,,2013-04-03 12:42:00,
2013-04-03 08:52:00,30.0,12.0,30.09,WNW,295,10.0,17.0,46,-99.99,,,-99.99,,2013-04-03 12:52:00,
2013-04-03 09:00:00,32.0,13.0,30.12,WNW,298,8.0,17.0,45,-99.99,,,-99.99,,2013-04-03 13:00:00,
2013-04-03 09:22:00,32.0,13.0,30.12,WNW,298,8.0,17.0,45,-99.99,,,-99.99,,2013-04-03 13:22:00,
2013-04-03 09:32:00,32.0,13.0,30.12,WNW,298,8.0,17.0,45,-99.99,,,-99.99,,2013-04-03 13:32:00,
2013-04-03 09:42:00,32.0,13.0,30.12,WNW,298,8.0,17.0,45,-99.99,,,-99.99,,2013-04-03 13:42:00,
2013-04-03 09:52:00,32.0,13.0,30.12,WNW,298,8.0,17.0,45,-99.99,,,-99.99,,2013-04-03 13:52:00,
2013-04-03 10:00:00,34.0,14.0,30.09,WNW,291,16.0,20.0,44,-99.99,,,-99.99,,2013-04-03 14:00:00,
2013-04-03 10:22:00,34.0,14.0,30.09,WNW,291,16.0,20.0,44,-99.99,,,-99.99,,2013-04-03 14:22:00,
2013-04-03 10:32:00,34.0,14.0,30.09,WNW,291,16.0,20.0,44,-99.99,,,-99.99,,2013-04-03 14:32:00,
2013-04-03 10:43:00,34.0,14.0,30.09,WNW,291,16.0,20.0,44,-99.99,,,-99.99,,2013-04-03 14:43:00,
2013-04-03 10:52:00,34.0,14.0,30.09,WNW,291,16.0,20.0,44,-99.99,,,-99.99,,2013-04-03 14:52:00,
2013-04-03 11:00:00,35.0,12.0,30.09,West,280,13.0,23.0,37,-99.99,,,-99.99,,2013-04-03 15:00:00,
2013-04-03 11:33:00,35.0,12.0,30.09,West,280,13.0,23.0,37,-99.99,,,-99.99,,2013-04-03 15:33:00,
2013-04-03 11:43:00,35.0,12.0,30.09,West,280,13.0,23.0,37,-99.99,,,-99.99,,2013-04-03 15:43:00,
2013-04-03 11:53:00,35.0,12.0,30.09,West,280,13.0,23.0,37,-99.99,,,-99.99,,2013-04-03 15:53:00,
2013-04-03 12:00:00,37.0,9.0,30.12,NW,321,13.0,-999.0,32,-99.99,,,-99.99,,2013-04-03 16:00:00,
2013-04-03 12:44:00,37.0,9.0,30.12,NW,321,13.0,-999.0,32,-99.99,,,-99.99,,2013-04-03 16:44:00,
2013-04-03 12:53:00,37.0,9.0,30.12,NW,321,13.0,-999.0,32,-99.99,,,-99.99,,2013-04-03 16:53:00,
2013-04-03 14:00:00,39.0,11.0,30.09,NW,307,19.0,28.0,30,-99.99,,,-99.99,,2013-04-03 18:00:00,
2013-04-03 14:23:00,39.0,11.0,30.09,NW,307,19.0,28.0,30,-99.99,,,-99.99,,2013-04-03 18:23:00,
2013-04-03 14:34:00,39.0,11.0,30.09,NW,307,19.0,28.0,30,-99.99,,,-99.99,,2013-04-03 18:34:00,
2013-04-03 14:43:00,39.0,11.0,30.09,NW,307,19.0,28.0,30,-99.99,,,-99.99,,2013-04-03 18:43:00,
2013-04-03 14:52:00,39.0,11.0,30.09,NW,307,19.0,28.0,30,-99.99,,,-99.99,,2013-04-03 18:52:00,
2013-04-03 15:00:00,41.0,13.0,30.06,WNW,282,19.0,30.0,31,-99.99,,,-99.99,,2013-04-03 19:00:00,
2013-04-03 15:22:00,41.0,13.0,30.06,WNW,282,19.0,30.0,31,-99.99,,,-99.99,,2013-04-03 19:22:00,
2013-04-03 15:32:00,41.0,13.0,30.06,WNW,282,19.0,30.0,31,-99.99,,,-99.99,,2013-04-03 19:32:00,
2013-04-03 15:42:00,41.0,13.0,30.06,WNW,282,19.0,30.0,31,-99.99,,,-99.99,,2013-04-03 19:42:00,
2013-04-03 15:52:00,41.0,13.0,30.06,WNW,282,19.0,30.0,31,-99.99,,,-99.99,,2013-04-03 19:52:00,
2013-04-03 16:00:00,43.0,11.0,30.06,West,280,11.0,34.0,27,-99.99,,,-99.99,,2013-04-03 20:00:00,
2013-04-03 16:23:00,43.0,11.0,30.06,West,280,11.0,34.0,27,-99.99,,,-99.99,,2013-04-03 20:23:00,
2013-04-03 16:33:00,43.0,11.0,30.06,West,280,11.0,34.0,27,-99.99,,,-99.99,,2013-04-03 20:33:00,
2013-04-03 16:42:00,43.0,11.0,30.06,West,280,11.0,34.0,27,-99.99,,,-99.99,,2013-04-03 20:42:00,
2013-04-03 16:53:00,43.0,11.0,30.06,West,280,11.0,34.0,27,-99.99,,,-99.99,,2013-04-03 20:53:00,
2013-04-03 17:00:00,40.0,8.0,30.09,NW,322,7.0,30.0,26,-99.99,,,-99.99,,2013-04-03 21:00:00,
2013-04-03 17:22:00,40.0,8.0,30.09,NW,322,7.0,30.0,26,-99.99,,,-99.99,,2013-04-03 21:22:00,
2013-04-03 17:33:00,40.0,8.0,30.09,NW,322,7.0,30.0,26,-99.99,,,-99.99,,2013-04-03 21:33:00,
2013-04-03 17:42:00,40.0,8.0,30.09,NW,322,7.0,30.0,26,-99.99,,,-99.99,,2013-04-03 21:42:00,
2013-04-03 17:52:00,40.0,8.0,30.09,NW,322,7.0,30.0,26,-99.99,,,-99.99,,2013-04-03 21:52:00,
2013-04-03 18:00:00,41.0,6.0,30.12,NW,323,7.0,24.0,23,-99.99,,,-99.99,,2013-04-03 22:00:00,
2013-04-03 18:22:00,41.0,6.0,30.12,NW,323,7.0,24.0,23,-99.99,,,-99.99,,2013-04-03 22:22:00,
2013-04-03 18:33:00,41.0,6.0,30.12,NW,323,7.0,24.0,23,-99.99,,,-99.99,,2013-04-03 22:33:00,
2013-04-03 18:42:00,41.0,6.0,30.12,NW,323,7.0,24.0,23,-99.99,,,-99.99,,2013-04-03 22:42:00,
2013-04-03 18:52:00,41.0,6.0,30.12,NW,323,7.0,24.0,23,-99.99,,,-99.99,,2013-04-03 22:52:00,
2013-04-03 19:00:00,39.0,6.0,30.15,NW,322,16.0,28.0,25,-99.99,,,-99.99,,2013-04-03 23:00:00,
2013-04-03 19:22:00,39.0,6.0,30.15,NW,322,16.0,28.0,25,-99.99,,,-99.99,,2013-04-03 23:22:00,
2013-04-03 19:33:00,39.0,6.0,30.15,NW,322,16.0,28.0,25,-99.99,,,-99.99,,2013-04-03 23:33:00,
2013-04-03 19:43:00,39.0,6.0,30.15,NW,322,16.0,28.0,25,-99.99,,,-99.99,,2013-04-03 23:43:00,
2013-04-03 19:54:00,39.0,6.0,30.15,NW,322,16.0,28.0,25,-99.99,,,-99.99,,2013-04-03 23:54:00,
2013-04-03 20:00:00,37.0,5.0,30.18,NW,325,14.0,27.0,26,-99.99,,,-99.99,,2013-04-04 00:00:00,
2013-04-03 20:32:00,37.0,5.0,30.18,NW,325,14.0,27.0,26,-99.99,,,-99.99,,2013-04-04 00:32:00,
2013-04-03 20:43:00,37.0,5.0,30.18,NW,325,14.0,27.0,26,-99.99,,,-99.99,,2013-04-04 00:43:00,
2013-04-03 20:52:00,37.0,5.0,30.18,NW,325,14.0,27.0,26,-99.99,,,-99.99,,2013-04-04 00:52:00,
2013-04-03 21:00:00,35.0,5.0,30.21,NW,320,7.0,21.0,28,-99.99,,,-99.99,,2013-04-04 01:00:00,
2013-04-03 21:22:00,35.0,5.0,30.21,NW,320,7.0,21.0,28,-99.99,,,-99.99,,2013-04-04 01:22:00,
2013-04-03 21:32:00,35.0,5.0,30.21,NW,320,7.0,21.0,28,-99.99,,,-99.99,,2013-04-04 01:32:00,
2013-04-03 21:43:00,35.0,5.0,30.21,NW,320,7.0,21.0,28,-99.99,,,-99.99,,2013-04-04 01:43:00,
2013-04-03 21:53:00,35.0,5.0,30.21,NW,320,7.0,21.0,28,-99.99,,,-99.99,,2013-04-04 01:53:00,
2013-04-03 22:00:00,34.0,6.0,30.21,NNW,337,7.0,18.0,30,-99.99,,,-99.99,,2013-04-04 02:00:00,
2013-04-03 22:22:00,34.0,6.0,30.21,NNW,337,7.0,18.0,30,-99.99,,,-99.99,,2013-04-04 02:22:00,
2013-04-03 22:32:00,34.0,6.0,30.21,NNW,337,7.0,18.0,30,-99.99,,,-99.99,,2013-04-04 02:32:00,
2013-04-03 22:42:00,34.0,6.0,30.21,NNW,337,7.0,18.0,30,-99.99,,,-99.99,,2013-04-04 02:42:00,
2013-04-03 22:53:00,34.0,6.0,30.21,NNW,337,7.0,18.0,30,-99.99,,,-99.99,,2013-04-04 02:53:00,
2013-04-03 23:00:00,33.0,6.0,30.24,NW,316,8.0,18.0,32,-99.99,,,-99.99,,2013-04-04 03:00:00,
2013-04-03 23:23:00,33.0,6.0,30.24,NW,316,8.0,18.0,32,-99.99,,,-99.99,,2013-04-04 03:23:00,
2013-04-03 23:34:00,33.0,6.0,30.24,NW,316,8.0,18.0,32,-99.99,,,-99.99,,2013-04-04 03:34:00,
2013-04-03 23:45:00,33.0,6.0,30.24,NW,316,8.0,18.0,32,-99.99,,,-99.99,,2013-04-04 03:45:00,
2013-04-03 23:53:00,33.0,6.0,30.24,NW,316,8.0,18.0,32,-99.99,,,-99.99,,2013-04-04 03:53:00,